Regional Weather Roundup
Issued by NWS

Home | Current Version | Previous Version | Graphics & Text | Print | Product List | Glossary Off
Versions: 1 2 3 4 5 6 7 8 9 10 11 12 13 14 15 16 17 18 19 20 21 22 23 24 25 26 27 28 29 30 31 32 33 34 35 36 37 38 39 40 41 42 43 44 45 46 47 48 49 50

779
ASUS43 KDMX 252201
RWRIA

WEATHER ROUNDUP FOR IOWA
NATIONAL WEATHER SERVICE DES MOINES IA
500 PM CDT TUE APR 25 2017

NOTE: "FAIR" INDICATES FEW OR NO CLOUDS BELOW 12,000 FEET WITH NO
SIGNIFICANT WEATHER AND/OR OBSTRUCTIONS TO VISIBILITY.

* - THESE STATIONS ARE NOT NWS STATIONS...THUS NOT UNDER NWS
QUALITY CONTROL.  THEY ALSO DO NOT REPORT WEATHER SUCH
AS PRECIPITATION OR FOG.

IAZ001>003-012>014-020>022-031>034-043>046-252300-
   NORTHWEST IOWA

CITY           SKY/WX    TMP DP  RH WIND       PRES   REMARKS
CARROLL *      CLOUDY    52  48  87 N16       29.47S
CHEROKEE *     DRIZZLE   43  42  96 N12       29.56R
DENISON *      CLOUDY    48  46  93 N12G18    29.52S FOG
LE MARS *      MIX PCPN  43  41  93 N10       29.59R
ORANGE CITY *  LGT RAIN  43  41  93 N9        29.57F
SHELDON *      MIX PCPN  41  41 100 N14       29.56F
SIOUX CITY     LGT RAIN  43  43 100 N12       29.58S FOG
SPENCER        CLOUDY    44  42  93 N14       29.56S
STORM LAKE *   CLOUDY    45  43  93 N14       29.53R
$$

IAZ055>058-069>071-079>083-090>094-252300-
   SOUTHWEST IOWA

CITY           SKY/WX    TMP DP  RH WIND       PRES   REMARKS
ATLANTIC *     CLOUDY    55  46  71 N15       29.46S
AUDUBON *      CLOUDY    52  46  82 N12       29.48S
CLARINDA *     CLOUDY    63  50  63 N16       29.45S
COUNCIL BLFS * CLOUDY    48  48 100 NW13      29.49S
CRESTON *      CLOUDY    68  52  56 SW5       29.43S
HARLAN  *      CLOUDY    50  46  87 N17       29.52S
LAMONI         CLOUDY    68  53  58 SW8       29.42F
RED OAK *      CLOUDY    57  46  67 N15G22    29.46R
SHENANDOAH *   CLOUDY    57  46  67 N13G21    29.47R
$$

IAZ047>049-059>061-072>074-084-252300-
   CENTRAL IOWA

CITY           SKY/WX    TMP DP  RH WIND       PRES   REMARKS
AMES           CLOUDY    69  51  52 S10G20    29.42S
ANKENY *       CLOUDY    70  50  49 SE8G14    29.42F
BOONE *        CLOUDY    70  48  46 S13       29.42R
CHARITON *     CLOUDY    70  54  56 S6        29.41F
DES MOINES     CLOUDY    72  48  42 SE8       29.41F
GRINNELL*      CLOUDY    71  44  37 SE13      29.45S
KNOXVILLE *    CLOUDY    72  48  43 E8        29.41S
MARSHALLTOWN   CLOUDY    71  46  40 SE13      29.42F
NEWTON *       CLOUDY    70  46  43 S13G20    29.42S
PELLA *        PTSUNNY   71  45  39 SE7       29.44S
PERRY *        CLOUDY    63  47  57 NW15G21   29.43R
$$

IAZ004>006-015-016-023>025-035-036-252300-
   NORTH CENTRAL IOWA

CITY           SKY/WX    TMP DP  RH WIND       PRES   REMARKS
ALGONA *       PTSUNNY   48  48 100 N12       29.51S
CLARION *      CLOUDY    55  54  94 NE15      29.46F
ESTHERVILLE    CLOUDY    43  43 100 N15       29.54F
FORT DODGE *   CLOUDY    55  46  71 N6        29.49R
MASON CITY     CLOUDY    54  50  86 NE12      29.50F
WEBSTER CITY * CLOUDY    57  50  77 N13G22    29.43S
IOWA FALLS *   CLOUDY    69  50  50 E10       29.44F
$$

IAZ007>011-017>019-026>030-037>042-050>054-066-252300-
   NORTHEAST IOWA

CITY           SKY/WX    TMP DP  RH WIND       PRES   REMARKS
CEDAR RAPIDS   CLOUDY    75  45  34 SE12      29.43F
CHARLES CITY * CLOUDY    64  54  68 NE10G16   29.48F
CLINTON *      CLOUDY    78  41  26 S21G29    29.47F
DECORAH *      CLOUDY    68  48  49 E13       29.49F
DUBUQUE        PTSUNNY   72  43  35 SE15G24   29.49F
MONTICELLO *   PTSUNNY   77  43  29 SE17      29.46F
OELWEIN *      PTSUNNY   73  43  33 S17G24    29.47S
WATERLOO       CLOUDY    73  46  38 SE15      29.44F
$$

IAZ064-065-067-068-078-252300-
   EAST CENTRAL IOWA

CITY           SKY/WX    TMP DP  RH WIND       PRES   REMARKS
DAVENPORT      CLOUDY    79  40  24 SE20      29.46F
IOWA CITY      CLOUDY    76  46  34 SE14G24   29.45F
MUSCATINE *    CLOUDY    77  43  29 SE13G23   29.44S
QUAD CITIES    MOSUNNY   80  42  25 SE21G26   29.45F
$$

IAZ062-063-075>077-085>089-095>099-252300-
   SOUTHEAST IOWA

CITY           SKY/WX    TMP DP  RH WIND       PRES   REMARKS
BURLINGTON     CLOUDY    76  48  37 S13       29.43F
FAIRFIELD *    CLOUDY    75  45  33 S15       29.42F
FORT MADISON * CLOUDY    77  46  33 S14G21    29.44F
KEOKUK *       CLOUDY    75  48  38 SE9G17    29.41F
OSKALOOSA *    CLOUDY    73  44  34 SE10      29.43S
OTTUMWA        CLOUDY    74  47  38 S12       29.42F
WASHINGTON *   CLOUDY    77  46  33 S12       29.44F
$$

ABBREVIATIONS USED IN REMARKS
   TC - TEMPERATURES IN CELSIUS
  WCI - WIND CHILL INDEX
   HX - HEAT INDEX
  VSB - VISIBILITY
$$





USA.gov is the U.S. government's official web portal to all federal, state and local government web resources and services.